sat.trackr.live / text

‹ back to catalog

STARLINK-32696

NORAD 62310 · 2024-239K

PAYLOAD ACTIVE UNKNOWN

§ Identity

Operator
Country
US
Launch date
2024-12-13
Launch site
AFWTR
Launch vehicle
Mass (kg)
RCS (m²)

Purposes: comms

External: N2YO · Heavens-Above · Gunter

§ Orbital elements

Epoch: 2026-05-24T12:08:20.484960Z

Period
93.85 min
Inclination
53.1589°
Eccentricity
0.0001133
Mean motion
15.34394805 rev/d
Perigee alt
461.9 km
Apogee alt
463.5 km
Semi-major
6,840.9 km
B*
6.8836e-4
RAAN
201.6272°
Arg perigee
83.4903°
Mean anomaly
276.6229°
Rev number
8,099

§ Raw data

STARLINK-326961 62310U 24239K   26144.50579265  .00022949  00000+0  68836-3 0  99972 62310  53.1589 201.6272 0001133  83.4903 276.6229 15.34394805 80992

JSON: /api/v1/satellites/62310 · /tle

For live sub-satellite position, see the globe view (requires WebGL).

§ Visibility from observer

Set your observer location to see the next 7 days of passes ≥ 10°. The values pass through the URL so the page stays shareable.

No JS? Fill the form by hand. The geolocation button needs JavaScript.